RH
76 77 72 71 72 74 70 74 79 81 84 85 86 88 89 90 94 95 93 92 92 91 90 88 86 89 49 25 17 26 76 75 34 22 16 14 14 16 16 16 18 19 20 28 27 31 32
69 72 82 79 74 71 68 75 77 79 80 84 88 89 91 90 90 96 95 94 93 93 92 89 85 91 42 26 13 22 24 25 19 18 15 14 16 17 18 18 20 27 29 28 28 30 30
66 69 71 77 84 78 74 73 76 77 76 81 85 88 90 90 90 92 96 96 94 94 92 88 85 55 46 27 14 20 25 20 18 16 14 14 15 18 19 20 25 27 28 30 30 29 26
62 62 64 71 77 84 79 77 75 75 76 76 80 85 88 90 91 91 95 97 96 94 91 90 87 54 32 20 17 21 17 22 18 17 18 15 16 19 21 20 20 22 21 19 23 28 29
66 65 64 67 71 75 84 80 77 75 74 77 76 80 87 90 92 93 97 97 95 90 87 86 63 52 27 30 23 14 13 15 17 21 20 16 18 21 22 21 19 18 18 20 20 22 23
67 68 67 70 70 72 74 84 78 77 75 77 79 76 84 90 91 93 97 96 83 81 72 58 49 50 29 17 18 20 18 13 18 21 22 21 20 22 20 19 20 20 20 20 21 21 25
71 71 71 71 71 70 70 75 85 80 77 76 78 79 81 88 91 94 86 52 48 52 62 36 32 28 22 20 26 21 21 21 16 20 23 23 23 24 16 18 18 17 19 20 18 18 22
71 74 74 72 73 69 66 69 74 83 78 76 75 80 79 85 90 95 83 56 53 56 52 35 39 36 29 28 30 25 19 18 21 22 22 26 27 20 20 20 22 21 22 22 19 19 22
76 76 75 75 74 73 68 69 71 76 84 77 76 80 79 85 92 91 80 59 48 47 50 40 36 29 26 30 26 21 20 16 19 21 22 23 22 22 23 24 25 23 24 24 22 20 21
76 76 76 76 79 77 75 74 72 72 82 80 78 79 82 85 90 65 72 53 50 56 59 31 35 31 28 24 30 15 18 16 19 20 18 21 18 23 25 23 22 25 21 22 23 26 23
77 77 77 77 76 79 78 77 76 74 75 83 80 79 83 85 84 68 56 60 63 62 42 20 37 25 27 20 16 20 16 18 19 20 22 23 23 25 25 23 22 23 26 26 26 28 26
78 78 78 79 79 78 80 78 79 77 75 80 81 79 83 71 76 65 58 66 68 66 54 23 39 41 38 27 21 19 20 17 15 18 21 17 22 22 21 24 23 26 29 29 29 28 32
80 81 80 80 80 80 80 81 80 79 77 79 83 80 80 51 62 56 65 72 75 65 23 22 42 41 31 26 24 21 22 25 23 29 28 21 20 21 23 24 26 26 30 35 44 38 34
83 82 81 80 80 81 80 81 83 80 77 78 84 83 79 67 51 68 80 97 79 26 29 30 37 41 33 21 20 24 21 24 19 18 20 25 29 21 21 22 23 26 26 35 36 36 28
83 83 83 83 83 83 82 82 83 82 78 79 83 89 88 82 64 84 97 95 54 34 31 29 35 46 38 23 19 24 23 21 20 20 24 26 21 19 23 22 20 32 32 25 37 49 44
82 82 83 83 83 83 83 83 84 84 79 80 84 91 79 76 74 96 97 71 43 28 32 40 34 37 46 27 26 24 25 20 20 19 17 23 27 21 28 26 28 27 23 35 34 43 38
83 83 82 82 84 84 83 84 84 84 79 81 88 98 62 74 82 99 90 64 40 33 37 44 38 48 34 33 23 26 24 22 18 21 18 18 22 34 32 31 25 32 31 29 27 32 38
84 84 84 83 84 84 83 84 84 86 80 87 80 99 64 67 98 93 81 51 46 33 40 44 46 48 50 32 29 23 23 20 21 19 26 21 24 30 25 24 25 23 25 27 36 35 38
84 86 84 83 82 83 84 83 84 86 82 84 93 96 80 66 91 92 60 53 40 42 36 45 47 44 47 47 36 28 25 23 20 21 24 24 28 34 29 28 31 28 25 24 28 36 34
88 87 84 84 84 84 87 85 85 88 83 72 96 99 99 96 50 58 60 53 51 39 39 37 42 41 47 46 42 35 31 34 28 22 52 34 24 28 33 22 18 26 25 25 26 39 31
84 91 88 85 85 88 88 88 88 90 86 83 99 95 71 96 90 51 50 45 46 48 39 40 45 46 46 48 47 40 33 43 34 56 30 28 28 25 20 16 15 18 17 19 25 24 28
81 82 84 91 90 82 83 90 89 90 88 95 98 83 56 66 66 60 49 51 44 38 40 45 47 40 43 52 47 49 40 39 34 42 34 28 30 28 31 22 22 23 20 19 23 21 22
81 83 83 83 82 82 83 90 90 91 89 96 80 52 48 57 68 63 51 42 42 36 37 35 40 43 51 44 42 42 41 38 36 37 41 38 33 39 36 32 33 56 36 23 24 26 26
82 81 81 84 82 82 80 84 91 90 85 84 74 58 74 61 58 64 49 36 39 35 43 37 39 45 38 43 42 37 38 37 34 32 33 46 40 42 48 69 81 26 27 22 24 22 20
84 82 82 82 84 83 81 84 92 89 84 69 67 59 61 87 45 45 53 43 37 37 40 39 44 38 42 44 53 61 60 54 43 41 45 41 45 58 78 48 30 28 31 30 31 26 20
83 81 85 84 84 84 83 86 92 86 85 66 68 57 73 71 58 37 53 47 45 44 52 43 37 47 50 61 63 62 81 53 53 58 51 47 50 55 61 57 82 37 23 23 24 34 18
86 85 83 86 85 84 84 91 91 85 85 68 78 74 69 74 47 42 60 60 39 40 55 48 56 56 48 76 88 71 70 49 60 70 88 70 69 77 62 74 43 29 29 25 40 38 20
90 85 84 86 85 84 91 92 88 86 84 68 82 75 74 76 55 45 48 57 44 44 61 46 50 60 68 77 72 70 84 61 56 48 62 62 70 84 68 91 78 35 31 34 28 33 26
88 87 88 85 83 81 84 90 87 86 84 67 91 85 66 78 78 74 80 57 39 34 40 56 41 49 53 60 69 61 97 92 56 64 41 64 52 51 49 43 48 34 27 27 30 26 33
Wind_Speed
16 15 13 13 12 12 13 11 12 9 10 11 13 13 12 13 13 12 11 12 12 12 12 13 14 14 11 7 8 5 4 9 11 11 10 8 8 6 8 3 4 8 5 4 3 2 3
19 15 15 15 13 13 13 12 11 10 10 9 10 12 13 11 12 12 12 12 12 12 12 13 13 13 6 10 4 4 4 6 7 11 8 8 2 2 4 3 5 2 2 2 4 5 3
18 19 17 15 15 13 12 11 12 11 10 10 9 11 12 13 12 12 11 11 13 12 12 14 10 6 7 16 2 7 4 3 7 7 7 6 4 6 2 4 0 3 6 5 4 3 1
17 18 19 18 15 14 13 12 10 12 12 10 11 10 11 12 13 12 11 12 12 13 12 10 5 5 10 2 4 8 9 9 9 6 7 2 4 5 5 1 4 7 6 7 9 5 2
18 18 18 17 18 17 13 16 12 11 12 12 10 10 11 12 13 12 11 12 14 9 5 3 5 6 10 5 7 9 14 9 8 7 6 2 6 4 5 11 8 7 5 3 4 7 1
20 20 19 17 17 18 15 14 13 11 11 10 12 11 10 12 13 12 11 11 10 3 5 5 4 6 8 3 3 4 10 11 5 9 6 9 7 9 10 10 11 7 9 6 8 6 7
23 23 20 19 18 18 19 15 13 13 11 11 10 11 9 11 12 11 9 8 7 7 7 10 4 5 3 4 3 8 8 11 10 10 12 8 9 11 9 11 8 7 5 5 6 3 7
23 23 23 22 21 21 20 20 15 12 14 11 10 11 9 11 10 9 6 6 4 5 11 15 21 21 16 6 4 9 10 14 13 15 8 8 11 6 2 6 7 8 7 7 3 1 8
24 23 23 24 23 22 22 20 18 16 12 14 9 9 9 8 8 2 8 8 1 5 8 9 14 12 10 14 10 13 15 16 17 17 15 14 2 2 8 8 9 10 10 5 8 9 4
26 25 24 24 23 23 22 20 17 17 13 13 10 9 9 5 4 4 6 2 5 6 7 6 8 9 12 10 12 16 17 15 8 19 15 12 6 7 8 10 9 10 4 10 8 7 2
28 27 27 26 25 24 23 21 19 18 17 14 11 9 10 10 6 5 4 5 5 5 8 8 6 5 9 19 12 19 17 10 18 12 10 11 10 11 11 13 10 3 1 5 6 8 5
31 29 28 27 26 25 24 23 21 19 18 15 13 12 9 8 8 8 3 8 4 5 11 4 7 10 11 16 7 15 14 8 9 12 11 11 2 5 2 4 10 8 5 3 3 4 7
32 31 30 29 28 27 25 25 23 21 19 16 16 14 10 11 9 7 7 4 7 11 2 7 6 8 13 14 12 16 24 22 16 17 17 15 13 5 5 8 6 10 8 5 6 5 3
33 32 31 30 29 28 27 26 25 22 20 18 16 13 10 13 13 8 5 4 14 7 13 2 3 8 11 17 14 15 24 23 23 19 12 16 16 14 12 11 7 14 11 4 6 5 5
33 32 32 31 30 28 27 26 26 24 21 18 16 9 7 9 11 4 5 14 13 12 6 5 6 7 9 14 9 14 21 25 24 21 15 17 15 5 6 4 9 7 9 2 2 3 3
34 33 32 32 32 30 28 27 27 26 23 19 11 8 12 9 10 6 8 25 17 14 6 6 9 10 12 15 12 17 19 19 25 24 19 7 13 8 9 6 4 7 11 6 4 5 6
34 34 33 32 31 32 31 29 29 29 26 21 10 6 9 13 10 7 16 25 26 13 8 6 9 3 6 10 18 16 13 5 24 21 20 14 9 7 7 12 12 7 8 4 3 4 4
34 34 34 34 33 33 33 32 31 32 29 21 10 7 12 17 11 6 20 29 12 26 12 6 3 4 3 7 14 18 19 12 21 22 23 17 9 9 13 4 5 9 12 14 7 8 4
35 34 34 33 34 35 35 35 34 36 35 14 8 3 11 15 14 15 26 31 27 15 28 9 7 6 1 4 7 17 11 10 13 20 21 16 10 10 11 8 5 9 11 11 7 3 10
34 34 34 35 34 35 36 37 36 38 38 15 7 9 6 11 19 30 25 24 31 24 20 26 5 9 5 5 7 1 9 4 13 20 7 18 14 18 14 11 10 14 13 14 15 9 11
28 29 32 35 34 34 35 38 38 41 41 14 8 10 12 16 19 28 30 22 29 26 28 18 21 13 11 4 3 6 5 3 5 6 10 13 17 17 17 15 13 16 16 17 18 17 16
29 30 29 26 27 31 33 38 40 44 43 12 9 9 17 11 28 32 30 30 29 33 24 27 18 23 15 5 4 4 5 2 3 5 9 9 13 12 13 11 13 15 17 17 18 16 12
31 31 32 32 32 32 34 37 42 45 40 8 10 13 14 17 27 22 23 32 30 29 28 24 23 15 12 17 9 6 5 4 4 2 8 6 10 7 13 5 5 8 15 15 14 12 14
33 33 33 34 34 34 33 35 44 47 40 9 13 10 10 12 17 19 29 29 32 29 24 17 17 22 11 1 0 9 5 7 8 8 9 6 11 6 5 4 8 12 1 12 17 16 16
35 36 36 35 35 34 34 34 44 49 46 12 11 12 11 11 18 25 28 31 26 25 24 23 9 11 7 5 5 1 7 7 9 5 10 10 7 5 6 11 10 8 5 9 12 16 17
31 30 33 37 35 33 31 45 43 48 47 13 12 10 8 11 19 29 23 27 21 21 19 21 17 8 7 4 6 7 8 7 5 6 1 6 5 6 5 8 8 6 13 10 6 13 12
28 34 30 36 34 32 30 38 46 47 47 14 8 12 8 10 14 16 17 19 25 21 16 16 11 13 11 5 4 6 7 7 5 4 5 5 4 10 8 6 4 3 7 11 10 15 4
34 33 31 36 34 31 27 41 45 45 45 17 9 11 10 5 5 13 17 19 21 17 16 14 13 7 9 9 7 6 4 8 9 6 3 5 8 5 4 5 9 10 10 11 11 2 7
25 34 35 35 34 31 32 44 45 45 40 14 8 5 6 6 3 5 8 8 19 26 15 18 12 19 8 8 6 4 3 3 10 7 15 7 8 4 8 5 3 17 10 14 5 6 5
Wind_Direction
322 306 282 285 292 297 301 296 300 296 308 318 323 324 321 318 313 296 296 301 305 309 311 314 321 329 318 283 265 82 115 130 166 193 216 206 207 234 240 260 234 253 317 310 299 229 285
298 301 323 294 271 278 288 297 292 289 296 299 310 316 319 315 316 309 294 298 300 302 302 302 314 311 280 273 79 165 124 152 185 187 199 207 238 298 269 269 274 68 358 163 178 176 176
294 295 304 300 313 275 274 280 296 286 290 295 302 309 314 315 310 309 299 293 296 296 297 300 298 275 256 262 176 187 228 224 192 212 205 210 244 251 340 237 203 244 249 185 166 171 325
286 287 287 287 296 306 281 265 269 290 291 286 293 303 308 308 304 302 302 290 289 293 302 298 238 234 260 200 228 233 215 230 230 234 259 227 216 277 259 114 219 250 239 247 130 181 126
281 277 277 284 284 289 307 274 257 262 281 292 287 295 305 305 307 304 299 287 282 295 298 178 193 241 261 139 222 221 207 215 193 197 226 231 212 265 204 236 226 203 275 274 195 204 214
273 273 276 276 280 276 283 304 264 254 264 280 287 284 298 302 307 308 300 273 291 209 202 228 249 247 229 207 143 169 189 210 184 154 174 207 210 232 221 230 234 203 219 200 284 142 232
281 273 271 269 271 272 272 276 285 266 252 265 280 280 294 299 305 317 304 277 229 197 217 239 170 266 286 316 201 199 180 180 196 210 217 200 228 226 241 227 318 271 276 277 294 97 281
278 275 267 262 263 265 269 266 268 275 265 250 267 278 283 295 307 310 277 274 344 14 292 254 253 250 255 305 289 203 178 187 193 207 196 202 228 243 211 206 238 237 247 263 253 100 304
272 270 270 262 257 258 260 264 261 261 255 253 257 272 274 292 316 239 250 263 115 316 266 260 226 239 222 197 227 213 193 201 198 208 208 231 127 198 208 190 221 238 266 284 286 321 249
269 267 265 264 256 250 250 251 256 254 256 241 239 255 267 275 259 216 241 158 249 212 271 239 207 230 185 173 224 211 202 188 195 207 211 231 216 217 224 246 236 250 248 266 266 272 246
264 261 260 258 256 249 244 243 244 247 249 239 235 234 253 221 335 216 107 17 126 200 270 127 160 117 162 187 130 190 185 194 201 183 197 204 189 200 226 243 210 244 158 246 255 255 279
260 259 257 255 252 248 239 236 232 234 240 240 216 235 226 229 242 250 193 322 203 217 242 198 153 179 167 201 215 143 171 214 219 190 218 219 137 223 252 188 203 130 167 156 198 236 238
259 257 255 253 249 246 243 232 227 225 228 232 219 226 206 232 230 226 236 254 194 230 59 177 193 180 196 181 198 188 178 187 185 189 204 198 209 176 190 177 184 205 220 181 190 205 255
255 253 250 249 246 241 238 230 221 219 221 222 214 217 217 236 238 278 198 189 227 218 224 5 181 181 200 172 199 198 186 191 206 202 197 203 200 206 184 229 212 206 218 243 225 195 184
254 251 248 244 241 237 233 226 215 211 212 210 211 218 222 226 227 253 216 204 215 211 210 230 160 181 211 199 189 185 201 201 197 201 202 202 210 151 212 191 212 163 215 1 98 26 257
253 250 246 241 236 234 229 221 211 203 201 195 213 211 215 194 202 214 218 224 215 218 224 216 229 207 197 196 198 199 189 210 203 201 210 198 214 194 144 167 155 260 137 179 214 224 241
253 248 244 238 233 228 223 217 207 197 192 185 194 217 194 176 175 225 216 214 220 198 226 221 230 237 232 190 208 202 190 180 199 195 209 210 230 154 178 204 190 169 196 221 263 263 259
251 247 241 237 230 225 219 213 203 190 183 176 183 211 166 162 187 227 225 213 215 220 216 223 250 256 250 213 209 213 212 218 198 184 192 193 213 204 205 123 268 269 224 204 220 195 234
249 242 238 234 231 224 216 209 201 186 180 168 180 170 177 179 197 221 234 224 225 217 218 210 212 223 245 253 224 214 213 198 188 189 196 176 208 208 211 192 186 219 207 222 232 264 236
249 237 233 232 226 224 215 206 198 184 180 176 166 169 171 201 217 204 221 224 216 224 232 224 238 228 252 255 230 214 220 180 188 205 187 175 207 217 227 220 205 213 220 212 221 230 249
245 236 235 228 225 217 214 202 195 182 178 173 187 194 172 186 202 209 211 206 213 206 210 217 220 223 210 241 234 202 226 145 164 171 187 201 218 222 236 241 245 237 241 223 226 237 248
245 237 224 215 219 218 210 201 190 179 174 184 173 187 183 181 203 208 196 216 210 212 192 210 221 208 222 239 4 120 7 190 171 171 180 196 221 215 219 227 231 241 242 246 227 242 251
241 234 229 221 217 212 208 207 186 179 168 176 193 214 188 202 195 208 210 200 217 208 219 210 212 211 212 233 259 359 353 334 327 326 199 200 201 195 228 207 213 256 235 225 221 225 232
241 234 224 219 216 212 208 205 182 177 173 178 171 180 202 196 203 201 213 204 207 220 209 202 212 216 217 186 67 298 288 296 280 257 237 190 204 200 218 169 226 249 274 235 237 242 237
242 233 223 213 211 209 207 197 177 173 174 193 163 192 191 203 202 205 207 207 203 218 212 206 188 215 160 173 236 139 306 267 235 234 210 217 190 174 175 215 260 241 193 194 200 243 238
230 220 218 206 203 201 201 194 175 170 172 189 173 191 203 195 213 205 193 201 198 194 198 207 198 136 121 153 180 204 193 304 175 162 160 178 235 240 169 216 221 222 211 202 214 251 255
229 214 207 196 190 191 187 180 172 168 172 178 161 188 180 220 232 209 203 188 200 188 191 178 161 186 169 180 173 196 189 217 246 224 175 167 177 210 206 234 241 220 147 160 211 252 268
213 199 194 179 176 174 171 163 168 167 172 172 152 189 185 188 231 215 215 194 195 205 182 178 182 186 179 194 196 179 182 197 211 234 169 201 185 175 189 211 235 148 134 208 233 192 203
136 155 161 162 164 166 169 168 166 166 170 144 127 161 159 225 24 335 312 254 216 189 175 171 191 168 163 179 203 190 146 166 193 226 209 252 232 252 217 212 84 185 223 222 262 250 204